Weather History for Glendive, MT

Change the Weather History Date:

Friday, October 26, 2012

  Actual Average Record
Temperature  
Mean Temperature 28 °F -  
Max Temperature 35 °F 48 °F 71 °F (1999)
Min Temperature 21 °F 28 °F 17 °F (2001)
Degree Days  
Heating Degree Days 37    
Moisture  
Dew Point 15 °F    
Average Humidity 60    
Maximum Humidity 80    
Minimum Humidity 41    
Precipitation  
Precipitation 0.00 in - - ()
Sea Level Pressure  
Sea Level Pressure 30.30 in    
Wind  
Wind Speed 10 mph (West)    
Max Wind Speed 18 mph    
Max Gust Speed 25 mph    
Visibility 10 miles    
Events      
Averages and records for this station are not official NWS values.
T = Trace of Precipitation, MM = Missing Value Source: NWS Daily Summary

Daily Weather History Graph

Daily Weather History Graph

Search for Another Location

Airport:

Trip Planner

Search our weather history database for the weather conditions in past years. The results will help you decide how hot, cold, wet, or windy it might be!

Date:

Astronomy

Oct. 26, 2012 Rise Set
Actual Time 7:34 AM MDT 5:51 PM MDT
Civil Twilight 7:02 AM MDT 6:22 PM MDT
Nautical Twilight 6:26 AM MDT 6:58 PM MDT
Astronomical Twilight 5:51 AM MDT 7:33 PM MDT
Moon 4:16 PM MDT (10/26) 4:23 AM MDT (10/26)
Length of Visible Light 11h 20m
Length of Day
10h 17m
Waxing Gibbous, 91% of the Moon is Illuminated
Oct 26
Waxing Gibbous
Oct 29
Full
Nov 6
Last Quarter
Nov 13
New
Nov 20
First Quarter

Hourly Weather History & Observations

Time (MDT) Temp. Windchill Dew Point Humidity Pressure Visibility Wind Dir Wind Speed Gust Speed Precip Events Conditions
12:15 AM 28.4 °F 17.5 °F 15.8 °F 59% 30.36 in 10.0 mi West 13.8 mph 21.9 mph N/A   Overcast
12:35 AM 28.4 °F 15.8 °F 15.8 °F 59% 30.36 in 10.0 mi WNW 18.4 mph 24.2 mph N/A   Overcast
12:55 AM 26.6 °F 14.3 °F 14.0 °F 59% 30.37 in 10.0 mi WNW 16.1 mph 25.3 mph N/A   Overcast
1:35 AM 26.6 °F 17.5 °F 14.0 °F 59% 30.37 in 10.0 mi WNW 9.2 mph - N/A   Overcast
1:55 AM 26.6 °F 15.2 °F 15.8 °F 64% 30.37 in 10.0 mi WNW 13.8 mph - N/A   Overcast
2:35 AM 26.6 °F 13.8 °F 15.8 °F 64% 30.38 in 10.0 mi WNW 17.3 mph 24.2 mph N/A   Overcast
2:55 AM 26.6 °F 15.7 °F 15.8 °F 64% 30.38 in 10.0 mi West 12.7 mph 19.6 mph N/A   Overcast
3:35 AM 26.6 °F 15.7 °F 15.8 °F 64% 30.38 in 10.0 mi West 12.7 mph - N/A   Overcast
3:55 AM 26.6 °F 16.2 °F 17.6 °F 69% 30.37 in 10.0 mi West 11.5 mph - N/A   Overcast
4:35 AM 26.6 °F 14.7 °F 15.8 °F 64% 30.37 in 10.0 mi West 15.0 mph 20.7 mph N/A   Overcast
4:55 AM 24.8 °F 16.1 °F 15.8 °F 69% 30.38 in 10.0 mi West 8.1 mph - N/A   Mostly Cloudy
5:15 AM 21.2 °F 11.7 °F 15.8 °F 80% 30.38 in 10.0 mi West 8.1 mph - N/A   Clear
5:35 AM 21.2 °F 12.6 °F 14.0 °F 74% 30.38 in 10.0 mi WSW 6.9 mph - N/A   Clear
5:55 AM 21.2 °F 11.7 °F 14.0 °F 74% 30.37 in 10.0 mi West 8.1 mph - N/A   Partly Cloudy
6:35 AM 21.2 °F 11.7 °F 15.8 °F 80% 30.37 in 10.0 mi West 8.1 mph - N/A   Overcast
6:55 AM 21.2 °F 11.7 °F 15.8 °F 80% 30.37 in 10.0 mi West 8.1 mph - N/A   Overcast
7:15 AM 24.8 °F 16.9 °F 17.6 °F 74% 30.38 in 10.0 mi West 6.9 mph - N/A   Overcast
7:35 AM 24.8 °F 14.6 °F 17.6 °F 74% 30.38 in 10.0 mi West 10.4 mph - N/A   Overcast
7:55 AM 26.6 °F 18.2 °F 15.8 °F 64% 30.39 in 10.0 mi West 8.1 mph - N/A   Overcast
8:15 AM 26.6 °F 17.5 °F 15.8 °F 64% 30.39 in 10.0 mi West 9.2 mph - N/A   Overcast
8:35 AM 26.6 °F 16.2 °F 14.0 °F 59% 30.39 in 10.0 mi West 11.5 mph - N/A   Overcast
8:55 AM 26.6 °F 16.8 °F 14.0 °F 59% 30.39 in 10.0 mi West 10.4 mph - N/A   Overcast
9:15 AM 26.6 °F 16.2 °F 12.2 °F 55% 30.39 in 10.0 mi West 11.5 mph - N/A   Overcast
9:35 AM 26.6 °F 16.2 °F 12.2 °F 55% 30.38 in 10.0 mi West 11.5 mph - N/A   Overcast
9:55 AM 28.4 °F 18.0 °F 12.2 °F 51% 30.38 in 10.0 mi West 12.7 mph - N/A   Overcast
10:15 AM 28.4 °F 18.5 °F 14.0 °F 55% 30.38 in 10.0 mi West 11.5 mph - N/A   Overcast
10:35 AM 28.4 °F 18.0 °F 14.0 °F 55% 30.38 in 10.0 mi West 12.7 mph - N/A   Overcast
10:55 AM 26.6 °F 16.8 °F 12.2 °F 55% 30.38 in 10.0 mi West 10.4 mph - N/A   Overcast
11:15 AM 28.4 °F 18.5 °F 12.2 °F 51% 30.37 in 10.0 mi West 11.5 mph - N/A   Overcast
11:35 AM 28.4 °F 18.5 °F 12.2 °F 51% 30.36 in 10.0 mi West 11.5 mph - N/A   Overcast
11:55 AM 28.4 °F 17.0 °F 14.0 °F 55% 30.36 in 10.0 mi WNW 15.0 mph - N/A   Overcast
12:15 PM 28.4 °F 19.1 °F 14.0 °F 55% 30.35 in 10.0 mi WNW 10.4 mph - N/A   Overcast
12:35 PM 28.4 °F 18.0 °F 14.0 °F 55% 30.34 in 10.0 mi West 12.7 mph 16.1 mph N/A   Overcast
12:55 PM 30.2 °F 19.8 °F 12.2 °F 47% 30.33 in 10.0 mi WNW 13.8 mph 17.3 mph N/A   Mostly Cloudy
1:15 PM 30.2 °F 22.6 °F 14.0 °F 51% 30.32 in 10.0 mi WNW 8.1 mph - N/A   Mostly Cloudy
1:35 PM 33.8 °F 26.4 °F 14.0 °F 44% 30.30 in 10.0 mi West 9.2 mph - N/A   Scattered Clouds
1:55 PM 33.8 °F 26.4 °F 14.0 °F 44% 30.29 in 10.0 mi West 9.2 mph 25.3 mph N/A   Partly Cloudy
2:15 PM 33.8 °F 27.7 °F 14.0 °F 44% 30.28 in 10.0 mi SW 6.9 mph - N/A   Clear
2:35 PM 33.8 °F 27.7 °F 15.8 °F 48% 30.27 in 10.0 mi West 6.9 mph - N/A   Clear
2:55 PM 33.8 °F - 14.0 °F 44% 30.26 in 10.0 mi Calm Calm - N/A   Clear
3:15 PM 33.8 °F - 15.8 °F 48% 30.25 in 10.0 mi Calm Calm - N/A   Clear
3:35 PM 33.8 °F 29.6 °F 14.0 °F 44% 30.25 in 10.0 mi WSW 4.6 mph - N/A   Clear
3:55 PM 35.6 °F 30.7 °F 15.8 °F 44% 30.25 in 10.0 mi SSW 5.8 mph - N/A   Clear
4:15 PM 35.6 °F 28.6 °F 14.0 °F 41% 30.24 in 10.0 mi WSW 9.2 mph - N/A   Clear
4:35 PM 35.6 °F 29.9 °F 15.8 °F 44% 30.24 in 10.0 mi SW 6.9 mph - N/A   Clear
4:55 PM 35.6 °F 29.2 °F 15.8 °F 44% 30.23 in 10.0 mi WSW 8.1 mph - N/A   Clear
5:15 PM 33.8 °F 28.6 °F 14.0 °F 44% 30.22 in 10.0 mi WSW 5.8 mph - N/A   Clear
5:35 PM 32.0 °F 27.5 °F 14.0 °F 48% 30.22 in 10.0 mi SW 4.6 mph - N/A   Clear
5:55 PM 30.2 °F 26.7 °F 14.0 °F 51% 30.22 in 10.0 mi WSW 3.5 mph - N/A   Mostly Cloudy
6:15 PM 30.2 °F - 15.8 °F 55% 30.21 in 10.0 mi Calm Calm - N/A   Partly Cloudy
6:35 PM 28.4 °F 22.2 °F 14.0 °F 55% 30.21 in 10.0 mi SSW 5.8 mph - N/A   Scattered Clouds
6:56 PM 26.6 °F - 15.8 °F 64% 30.21 in 10.0 mi Calm Calm - N/A   Mostly Cloudy
7:15 PM 26.6 °F - 15.8 °F 64% 30.20 in 10.0 mi Calm Calm - N/A   Clear
7:35 PM 24.8 °F - 14.0 °F 64% 30.20 in 10.0 mi Calm Calm - N/A   Clear
7:55 PM 24.8 °F - 15.8 °F 69% 30.20 in 10.0 mi Calm Calm - N/A   Mostly Cloudy
8:15 PM 24.8 °F 17.9 °F 15.8 °F 69% 30.19 in 10.0 mi NNE 5.8 mph - N/A   Partly Cloudy
8:55 PM 24.8 °F 16.9 °F 15.8 °F 69% 30.19 in 10.0 mi NE 6.9 mph - N/A   Clear
9:15 PM 24.8 °F 16.9 °F 15.8 °F 69% 30.19 in 10.0 mi NNE 6.9 mph - N/A   Mostly Cloudy
9:35 PM 24.8 °F 16.9 °F 15.8 °F 69% 30.18 in 10.0 mi NE 6.9 mph - N/A   Overcast
9:55 PM 24.8 °F 16.1 °F 15.8 °F 69% 30.19 in 10.0 mi NE 8.1 mph - N/A   Mostly Cloudy
10:15 PM 24.8 °F 16.9 °F 15.8 °F 69% 30.18 in 10.0 mi NE 6.9 mph - N/A   Partly Cloudy
10:35 PM 24.8 °F 16.1 °F 15.8 °F 69% 30.18 in 10.0 mi NE 8.1 mph - N/A   Clear
10:55 PM 24.8 °F 16.1 °F 14.0 °F 64% 30.17 in 10.0 mi NE 8.1 mph - N/A   Partly Cloudy
11:15 PM 23.0 °F 14.7 °F 14.0 °F 68% 30.17 in 10.0 mi NE 6.9 mph - N/A   Scattered Clouds
11:35 PM 24.8 °F 14.6 °F 17.6 °F 74% 30.17 in 10.0 mi NE 10.4 mph - N/A   Mostly Cloudy
11:55 PM 24.8 °F 14.6 °F 17.6 °F 74% 30.17 in 10.0 mi NE 10.4 mph - N/A   Overcast